This is the latest recevied weather packets stored in our database for station/object SALT. If no packets are shown the sender has not sent any weather packets the latest 10 day(s).
| Time | Temp. | Humidity | Pressure | Rain* | Wind** | Luminosity | Snow |
|---|---|---|---|---|---|---|---|
| 1777647204 | 10.56° C | 41% | 1025.8 hPa | 0 mm | - | - | - |
| 1777646601 | 10° C | 41% | 1025.7 hPa | 0 mm | - | - | - |
| 1777645999 | 10° C | 38% | 1025.7 hPa | 0 mm | - | - | - |
| 1777645396 | 8.89° C | 42% | 1025.7 hPa | 0 mm | - | - | - |
| 1777644791 | 8.33° C | 42% | 1025.5 hPa | 0 mm | - | - | - |
| 1777644188 | 7.78° C | 43% | 1025.5 hPa | 0 mm | - | - | - |
| 1777643586 | 7.78° C | 44% | 1025.5 hPa | 0 mm | - | - | - |
| 1777642983 | 7.22° C | 44% | 1025.5 hPa | 0 mm | - | - | - |
| 1777642381 | 6.67° C | 43% | 1025.4 hPa | 0 mm | - | - | - |
| 1777641779 | 6.11° C | 46% | 1025.4 hPa | 0 mm | - | - | - |
| 1777641174 | 5.56° C | 45% | 1025.5 hPa | 0 mm | - | - | - |
| 1777640571 | 6.11° C | 45% | 1025.4 hPa | 0 mm | - | - | - |
| 1777639968 | 6.11° C | 44% | 1025.4 hPa | 0 mm | - | - | - |
| 1777639365 | 6.11° C | 44% | 1025.3 hPa | 0 mm | - | - | - |
| 1777638763 | 6.11° C | 43% | 1025.3 hPa | 0 mm | - | - | - |
| 1777638160 | 6.11° C | 45% | 1025.4 hPa | 0 mm | - | - | - |
| 1777636952 | 6.11° C | 47% | 1025.4 hPa | 0 mm | - | - | - |
| 1777636350 | 5.56° C | 49% | 1025.5 hPa | 0 mm | - | - | - |
| 1777635747 | 6.11° C | 48% | 1025.5 hPa | 0 mm | - | - | - |
| 1777635145 | 6.67° C | 46% | 1025.4 hPa | 0 mm | - | - | - |
| 1777634542 | 6.67° C | 46% | 1025.6 hPa | 0 mm | - | - | - |
| 1777633937 | 6.67° C | 45% | 1025.7 hPa | 0 mm | - | - | - |
| 1777633334 | 7.22° C | 45% | 1025.7 hPa | 0 mm | - | - | - |
| 1777632732 | 7.22° C | 44% | 1025.7 hPa | 0 mm | - | - | - |
| 1777632129 | 7.22° C | 45% | 1025.7 hPa | 0 mm | - | - | - |
* Rain latest 24 hours (hover to see other rain measurements)
** Current wind speed in m/s (hover to see current wind gust speed)